KOREASAT 6A

Satellite information

Favourite Embed

Satellite Type and Status

PAYLOADIN ORBIT

Key statistics

Satellite KOREASAT 6A at a glance.

Uptime

398

Days in orbit

Revolutions

≈ 1.0

Per day

Orbit

GEO

Geostationary Orbit

Inclination

0.0

Latest

Satellite identification and parameters

Extended collection of information and parameters for KOREASAT 6A.

Object identification

Identified? True

Debris? False

Object name: KOREASAT 6A

International designator: 2024-206A

Object number (NORAD): 61910

Object ID (CCSDS): 61910

Country: SOUTH KOREA (SKOR)

Current information (Y/N): Y

Orbital parameters

Period: 1436.14 minutes

Inclination: 0.0156 deg

SMA: 42165.583 km

Apoapsis: 35791.145 km

Periapsis: 35783.75 km

RAAN: 284.3574 deg

Eccentricy: 0.00008769

Argument of periapsis: 317.1175 deg

Mean anomaly: 320.5104 deg

Mean motion: 1.00268751 rev/day

Mean motion (dot): -0.00000353 rev/day2

B* drag term: 0.0 1/REarth

Two-line elements (TLE)

Creation date: Dec. 12, 2025, 10:14 a.m.

Reference frame: TEME

Reference center: EARTH

Epoch: Dec. 12, 2025, 12:20 a.m. UTC

TLE line 0: 0 KOREASAT 6A

TLE line 1: 1 61910U 24206A 25346.01397456 -.00000353 00000-0 00000-0 0 9998

TLE line 2: 2 61910 0.0156 284.3574 0000877 317.1175 320.5104 1.00268751 3964

Live tracking on map

Real-time ground track for satellite KOREASAT 6A.

In-orbit conjunctions

There are no conjunctions computed for KOREASAT 6A, at the moment. Check back to stay up to date, as we update our databases every day.

Go to all conjunctions

Associated space launch

A batch of 24 satellites for the Starlink mega-constellation - SpaceX's project for space-based Internet communication system.

KOREASAT 6A was lifted into orbit during the mission ‘Falcon 9 Block 5 | Starlink Group 6-69’, on board a Falcon 9 space rocket.

The launch took place on Nov. 11, 2024, 9:28 p.m. from Space Launch Complex 40.

For more information about the launch, click the button.

Launch to space Falcon 9 Block 5 | Starlink Group 6-69
Falcon 9 Block 5 | Starlink Group 6-69

Agency: SpaceX

Status: Launch Successful

Launch date: Nov. 11, 2024, 9:28 p.m. UTC

Rocket: Falcon 9

Launch pad: Space Launch Complex 40

Location: Cape Canaveral SFS, FL, USA

...

Latest news about this satellite

News about space launch
Launch Roundup: Falcon 9 launches customer payloads, China fly resupply mission to Tiangong

While SpaceX is preparing to fly Starship on its sixth integrated test flight this week, the company flew one satellite and plans to fly two more to geostationary transfer orbit this week. Koreasat 6A has flown while Optus-X and GSAT-20 are also scheduled...

News about space launch
SpaceX sends 24 more Starlink satellites into orbit

SpaceX sent 24 more Starlink high-speed internet satellites into orbit on Monday, launching a Falcon 9 rocket from Space Launch Complex 40...

News about space launch
SpaceX completes double launch day with Starlink 6-69 launch

The mission carried into orbit 24 V2 Mini Starlink satellites, which appears to be the maximum that can be flown on a single Falcon 9 launch. Liftoff from pad 40 at Cape Canaveral Space Force Station happened on Monday, Nov. 11 at 4:28 p.m. EST (2128 UTC)...


Newsletter sign-up

Weekly statistics, charts and insights to help you stay on top of the space industry.